Tracking 29591 objects as of 19-Sep-2024
HD Live streaming from Space Station
objects crossing your sky now

STARLINK-3837

Track STARLINK-3837 now!
10-day predictions
STARLINK-3837 is classified as:


NORAD ID: 52358
Int'l Code: 2022-045AD
Perigee: 545.9 km
Apogee: 547.9 km
Inclination: 53.2 °
Period: 95.4 minutes
Semi major axis: 6917 km
RCS: Unknown
Launch date: April 29, 2022
Source: United States (US)
Launch site: AIR FORCE EASTERN TEST RANGE (AFETR)
Your satellite tracking list
Your tracking list is empty




NASA's NSSDC Master Catalog

Two Line Element Set (TLE):
1 52358U 22045AD  24262.78739509 -.00003413  00000-0 -19650-3 0  9997
2 52358  53.2150  89.3660 0001488  85.0580 275.0582 15.08827592134734
Source of the keplerian elements: AFSPC